Regional Weather Roundup
Issued by NWS Green Bay, WI

Home | Current Version | Previous Version | Graphics & Text | Print | Product List | Glossary Off
Versions: 1 2 3 4 5 6 7 8 9 10 11 12 13 14 15 16 17 18 19 20 21 22 23 24 25 26 27 28 29 30 31 32 33 34 35 36 37 38 39 40 41 42 43 44 45 46 47 48 49 50

000
ASUS43 KGRB 290610
RWRGRB

NORTH-CENTRAL AND NORTHEAST WISCONSIN REGIONAL WEATHER ROUNDUP
NATIONAL WEATHER SERVICE GREEN BAY WI
1200 AM CST MON DEC 29 2014

WIZ005-009-010>012-018-019-290700-
NORTH CENTRAL WISCONSIN

CITY           SKY/WX    TMP DP  RH WIND       PRES   REMARKS
IRONWOOD       CLOUDY     7   3  85 W8        30.26R WCI  -6
MANITOWISH WTR PTCLDY   -13 -18  79 CALM      30.24R
ARBOR VITAE    PTCLDY    -6 -11  79 CALM      30.24S
EAGLE RIVER    PTCLDY    -5 -10  79 CALM      30.23R
LAND O LAKES   LGT SNOW   2  -1  85 SW5       30.23R WCI  -8
RHINELANDER    PTCLDY    -6  -9  86 CALM      30.24S
PHILLIPS       PTCLDY   -12 -15  84 CALM      30.27R
ANTIGO         PTCLDY    -4  -7  87 NW5       30.25R WCI -14
TOMAHAWK       MOCLDY   -11 -15  80 CALM      30.27S
MERRILL        MOCLDY    -5  -8  86 CALM      30.28S
$$

WIZ013-073-290700-
NORTHEAST WISCONSIN

CITY           SKY/WX    TMP DP  RH WIND       PRES   REMARKS
IRON MOUNTAIN    N/A      1  -3  83 CALM      30.23S
MARINETTE      CLEAR     12   5  73 NW3       30.30R
OCONTO         CLEAR     13   7  76 NW3       30.31S
$$

WIZ017-030-035>037-045-290700-
CENTRAL WISCONSIN

CITY           SKY/WX    TMP DP  RH WIND       PRES   REMARKS
MEDFORD        PTCLDY   N/A N/A N/A CALM      30.27R
WAUSAU         PTCLDY     4   1  88 NW5       30.28R WCI  -5
MOSINEE        PTCLDY     5   5 100 W3        30.29R
MARSHFIELD     PTCLDY     8   4  83 NE7       30.29R WCI  -3
WISC RAPIDS    PTCLDY    12   6  77 N6        30.32R WCI   3
STEVENS POINT  PTCLDY     8   5  86 N5        30.31R WCI   0
WAUPACA        PTCLDY    17  11  80 NW3       30.31R
SHAWANO        PTCLDY    14   9  79 CALM      30.31R
CLINTONVILLE   PTCLDY    14   7  73 N3        30.31R
$$

WIZ038-039-048-051-290700-
FOX VALLEY

CITY           SKY/WX    TMP DP  RH WIND       PRES   REMARKS
NWS GREEN BAY  CLEAR     16   7  67 N9        30.31R WCI   4
APPLETON       CLEAR     18  10  73 N9        30.29R WCI   6
OSHKOSH        PTCLDY    19  13  77 N6        30.29R
FOND DU LAC    PTCLDY    21  13  71 N8        30.29R
$$

WIZ022-050-052-290700-
EAST CENTRAL WISCONSIN

CITY           SKY/WX    TMP DP  RH WIND       PRES   REMARKS
STURGEON BAY   CLEAR     16   3  57 N12       30.30S WCI   3
MANITOWOC      PTCLDY    20  14  77 N10       30.30R WCI   9
SHEBOYGAN      PTCLDY    22  15  75 N9        30.28R
$$

LMZ563-521-522-541>543-290700-
LAKESHORE

STATION/POSITION TIME  TEMP    WIND        PRES    VSBY  WAVE
                       AIR SEA DIR/SP/G                  HT/PER
                 (UTC) (F)     (DEG/KT/KT) (MB)    (MI)  (FT/S)
SHEBOYGAN LKSHOR 0600   24 36  330/ 12/ 13 1026.6R
KEWAUNEE LKSHORE 0600   17     340/  7/ 11 1025.0R
NORTHPORT PIER   0600   19     320/ 15/ 19 1025.4S
SISTER BAY LKSHO 0500          350/ 17/ 20   N/A
CHAMBERS ISLAND  0600   16     300/  9/ 13 1025.7R
MENOMINEE LKSHOR 0600   14     290/  7/  8 1026.7R
$$



USA.gov is the U.S. government's official web portal to all federal, state and local government web resources and services.